Find Starlink 30912

NORAD ID: 58422 Int'l Des: 2023-180 Owner: SPXS Country: US Constellation: starlink operational
LEOCIRCULAR

現在のビュー

3D地球を読み込み中...

About Starlink 30912

Starlink 30912 (NORAD 58422) is a starlink constellation satellite (v2 mini) launched Nov 22, 2023 by SPXS of US. It operates in LEO, CIRCULAR orbit with a mass of 730.00 kg.

Starlink 30912について

説明を読み込み中...

次回通過

Passes for default location (London). Set your location on the main map for personalized predictions.

高度履歴

Loading altitude history...

軌道要素

1 58422U 23180W 26174.98131347 -.00001080 00000-0 -29701-4 0 9995
2 58422 43.0055 30.0195 0001752 262.8821 97.1832 15.27585543145557
Epoch: Jun 23, 2026 • Age: 24 hours

現在のステータス

高度 485.4 km
速度 7.63 km/s
衛星直下点 34.53°N, 168.48°E
打ち上げ日 Nov 22, 2023
運用期間 2.5 years
タイプ internet

技術仕様

分類 Payload
質量 730.00 kg
乾燥質量 700.00 kg
総質量 730.00 kg
長さ 0.30 m
直径 4.10 m
スパン 29.00 m
形状 Box + pan
製造者 SPXS
バスタイプ Starlink V2M
フェーズステータス In Orbit
所有者/国 SPXS/US

Most Searched